Regional Weather Roundup
Issued by NWS

Home | Current Version | Previous Version | Graphics & Text | Print | Product List | Glossary On
Versions: 1 2 3 4 5 6 7 8 9 10 11 12 13 14 15 16 17 18 19 20 21 22 23 24 25 26 27 28 29 30 31 32 33 34 35 36 37 38 39 40 41 42 43 44 45 46 47 48 49 50
786
ASUS44 KJAN 270910
RWRMS

MISSISSIPPI HOURLY WEATHER ROUNDUP
NATIONAL WEATHER SERVICE JACKSON MS
400 AM CDT WED AUG 27 2014

NOTE: "FAIR: INDICATES FEW OR NO CLOUDS BELOW 12,000 FEET WITH NO
SIGNIFICANT WEATHER AND/OR OBSTRUCTIONS TO VISIBILITY.

MSZ001>002-007>008-010>013-018>021-025>028-034>036-271000-
NORTHWEST MISSISSIPPI

CITY           SKY/WX    TMP DP  RH WIND       PRES   REMARKS
CLARKSDALE     FAIR      72  72 100 CALM      30.05F
CLEVELAND      FAIR      71  69  92 CALM      30.03S
GREENWOOD      CLEAR     73  66  78 E6        30.02F
GREENVILLE     CLEAR     69  67  93 N3        30.03S
GRENADA        FAIR      70  66  88 CALM      30.04S
OLIVE BRANCH   CLEAR     72  72 100 CALM      30.07S
OXFORD         FAIR      68  64  88 CALM      30.07F
TUNICA         SUNNY     70  68  94 CALM      30.06S
$$

MSZ003>006-009-014>017-022>024-029>033-037>039-271000-
NORTHEAST MISSISSIPPI

CITY           SKY/WX    TMP DP  RH WIND       PRES   REMARKS
BELMONT        FAIR      66  65  99 CALM      30.07S
COLUMBUS AFB   CLEAR     67  67  99 SE2       30.04F
CORINTH        FOG       68  66  94 CALM      30.06F VSB 1/2
GOLDN TRIANGLE CLEAR     70  63  78 E3        30.05S
STARKVILLE     FAIR      64  63  94 CALM      30.04F
TUPELO         CLEAR     68  65  90 NE5       30.05S
$$

MSZ040-058-271000-
CENTRAL MISSISSIPPI

CITY           SKY/WX    TMP DP  RH WIND       PRES   REMARKS
JACKSON INTL   MOCLDY    72  66  81 CALM      30.04R
JACKSON HAWKNS PTCLDY    73  66  78 CALM      30.04S
MERIDIAN KEY   CLEAR     67  64  90 N6        30.04R
MERIDIAN NAS   CLEAR     67  64  90 CALM      30.04S
RAYMOND        FAIR      68  63  83 CALM      30.03S
VICKSBURG      CLOUDY    73  66  78 CALM      30.02S
$$

MSZ059>079-271000-
SOUTH MISSISSIPPI

CITY           SKY/WX    TMP DP  RH WIND       PRES   REMARKS
BROOKHAVEN     FAIR      68  66  94 CALM      30.03S
COLUMBIA       FAIR      68  66  94 MISG      29.99F
HATTIESBURG    PTCLDY    70  68  93 CALM      30.01S
MCCOMB         CLEAR     73  65  75 N3        30.00F
NATCHEZ        CLEAR     68  64  88 CALM      30.02S
PINE BELT      PTCLDY    72  64  78 CALM      30.02S
$$

MSZ080>082-271000-
COASTAL MISSISSIPPI

CITY           SKY/WX    TMP DP  RH WIND       PRES   REMARKS
BILOXI         MOCLDY    76  73  89 NE8       29.97F
PASCAGOULA     PTCLDY    73  71  93 CALM      29.98S
GULFPORT       CLEAR     76  73  91 N5        29.97S
$$



USA.gov is the U.S. government's official web portal to all federal, state and local government web resources and services.